TimeEST,TemperatureF,Dew PointF,Humidity,Sea Level PressureIn,VisibilityMPH,Wind Direction,Wind SpeedMPH,Gust SpeedMPH,PrecipitationIn,Events,Conditions,WindDirDegrees,DateUTC
12:15 AM,12.2,3.2,67,30.01,10.0,NNW,18.4,23.0,N/A,,Overcast,330,2013-02-10 05:15:00
12:35 AM,12.2,1.4,62,30.01,10.0,NNW,16.1,20.7,N/A,,Overcast,330,2013-02-10 05:35:00
12:55 AM,12.2,1.4,62,30.01,10.0,NNW,17.3,24.2,N/A,,Overcast,330,2013-02-10 05:55:00
1:15 AM,12.2,3.2,67,30.02,10.0,NNW,18.4,25.3,N/A,,Overcast,330,2013-02-10 06:15:00
1:35 AM,12.2,1.4,62,30.03,10.0,NNW,15.0,20.7,N/A,,Overcast,330,2013-02-10 06:35:00
1:55 AM,12.2,1.4,62,30.03,10.0,NNW,15.0,25.3,N/A,,Overcast,330,2013-02-10 06:55:00
2:15 AM,12.2,1.4,62,30.03,10.0,NNW,15.0,-,N/A,,Mostly Cloudy,330,2013-02-10 07:15:00
2:35 AM,12.2,1.4,62,30.04,10.0,NNW,17.3,20.7,N/A,,Mostly Cloudy,340,2013-02-10 07:35:00
2:55 AM,12.2,1.4,62,30.04,10.0,NNW,13.8,18.4,N/A,,Overcast,330,2013-02-10 07:55:00
3:15 AM,12.2,1.4,62,30.04,10.0,NNW,13.8,-,N/A,,Overcast,330,2013-02-10 08:15:00
3:35 AM,12.2,1.4,62,30.04,10.0,NNW,16.1,-,N/A,,Overcast,330,2013-02-10 08:35:00
3:55 AM,10.4,1.4,67,30.04,10.0,NW,15.0,21.9,N/A,,Overcast,320,2013-02-10 08:55:00
4:35 AM,10.4,1.4,67,30.05,8.0,NW,18.4,26.5,N/A,,Partly Cloudy,320,2013-02-10 09:35:00
4:55 AM,10.4,1.4,67,30.06,10.0,NW,10.4,-,N/A,,Clear,320,2013-02-10 09:55:00
5:15 AM,10.4,-0.4,62,30.06,10.0,NW,12.7,19.6,N/A,,Clear,320,2013-02-10 10:15:00
5:35 AM,10.4,-0.4,62,30.07,10.0,NW,12.7,18.4,N/A,,Clear,320,2013-02-10 10:35:00
5:55 AM,10.4,-0.4,62,30.07,10.0,NW,12.7,-,N/A,,Partly Cloudy,320,2013-02-10 10:55:00
6:15 AM,10.4,-0.4,62,30.08,10.0,NNW,15.0,20.7,N/A,,Clear,330,2013-02-10 11:15:00
6:35 AM,10.4,-0.4,62,30.09,10.0,NNW,11.5,17.3,N/A,,Clear,330,2013-02-10 11:35:00
7:15 AM,8.6,-0.4,67,30.11,10.0,NW,8.1,-,N/A,,Clear,310,2013-02-10 12:15:00
7:35 AM,8.6,-0.4,67,30.13,10.0,Calm,Calm,-,N/A,,Clear,0,2013-02-10 12:35:00
7:55 AM,10.4,-0.4,62,30.13,10.0,WNW,8.1,-,N/A,,Clear,290,2013-02-10 12:55:00
8:15 AM,10.4,-0.4,62,30.14,10.0,NW,8.1,-,N/A,,Clear,310,2013-02-10 13:15:00
8:35 AM,10.4,-0.4,62,30.15,10.0,NW,10.4,16.1,N/A,,Clear,320,2013-02-10 13:35:00
8:55 AM,12.2,-0.4,57,30.16,10.0,NW,10.4,-,N/A,,Clear,310,2013-02-10 13:55:00
9:15 AM,12.2,-0.4,57,30.17,10.0,NW,12.7,-,N/A,,Clear,310,2013-02-10 14:15:00
9:55 AM,14.0,1.4,57,30.18,10.0,NNW,10.4,-,N/A,,Clear,330,2013-02-10 14:55:00
10:15 AM,15.8,1.4,53,30.18,10.0,NW,12.7,21.9,N/A,,Clear,320,2013-02-10 15:15:00
10:35 AM,15.8,-0.4,49,30.18,10.0,NNW,13.8,19.6,N/A,,Clear,340,2013-02-10 15:35:00
10:55 AM,17.6,1.4,49,30.18,10.0,NNW,16.1,23.0,N/A,,Clear,340,2013-02-10 15:55:00
11:15 AM,17.6,1.4,49,30.18,10.0,NNW,16.1,-,N/A,,Clear,340,2013-02-10 16:15:00
11:35 AM,19.4,3.2,49,30.17,6.0,NNW,13.8,-,N/A,,Clear,330,2013-02-10 16:35:00
11:55 AM,21.2,1.4,42,30.17,10.0,NNW,16.1,-,N/A,,Clear,330,2013-02-10 16:55:00
12:15 PM,21.2,3.2,46,30.17,0.8,NNW,15.0,-,N/A,,Unknown,340,2013-02-10 17:15:00
12:35 PM,21.2,3.2,46,30.16,10.0,NNW,10.4,-,N/A,,Clear,340,2013-02-10 17:35:00
12:55 PM,24.8,3.2,40,30.15,10.0,NNW,12.7,-,N/A,,Clear,330,2013-02-10 17:55:00
1:15 PM,24.8,3.2,40,30.16,10.0,WNW,13.8,-,N/A,,Clear,300,2013-02-10 18:15:00
1:35 PM,24.8,1.4,36,30.15,10.0,NNW,13.8,-,N/A,,Clear,340,2013-02-10 18:35:00
1:55 PM,24.8,3.2,40,30.15,10.0,North,13.8,-,N/A,,Clear,360,2013-02-10 18:55:00
2:35 PM,24.8,1.4,36,30.15,10.0,NNW,10.4,-,N/A,,Clear,330,2013-02-10 19:35:00
2:55 PM,26.6,-0.4,31,30.16,10.0,NW,13.8,17.3,N/A,,Clear,320,2013-02-10 19:55:00
3:15 PM,26.6,-0.4,31,30.15,10.0,North,11.5,-,N/A,,Clear,360,2013-02-10 20:15:00
3:35 PM,24.8,1.4,36,30.15,10.0,NNW,13.8,-,N/A,,Clear,330,2013-02-10 20:35:00
3:55 PM,26.6,1.4,34,30.15,10.0,NNW,11.5,-,N/A,,Clear,330,2013-02-10 20:55:00
4:15 PM,24.8,-0.4,34,30.15,10.0,NNW,12.7,-,N/A,,Clear,330,2013-02-10 21:15:00
4:35 PM,21.2,-0.4,39,30.16,10.0,NNW,9.2,-,N/A,,Clear,340,2013-02-10 21:35:00
5:15 PM,21.2,-0.4,39,30.17,10.0,NW,6.9,-,N/A,,Clear,320,2013-02-10 22:15:00
5:35 PM,21.2,-0.4,39,30.17,10.0,NW,6.9,-,N/A,,Clear,320,2013-02-10 22:35:00
5:55 PM,21.2,-0.4,39,30.18,10.0,NNW,6.9,-,N/A,,Clear,330,2013-02-10 22:55:00
6:15 PM,19.4,-0.4,42,30.18,10.0,NNW,6.9,-,N/A,,Clear,330,2013-02-10 23:15:00
6:36 PM,19.4,-2.2,39,30.19,10.0,NNW,5.8,-,N/A,,Clear,330,2013-02-10 23:36:00
6:55 PM,14.0,-5.8,41,30.20,10.0,SSE,4.6,-,N/A,,Clear,160,2013-02-10 23:55:00
7:15 PM,10.4,-2.2,57,30.20,10.0,Calm,Calm,-,N/A,,Clear,0,2013-02-11 00:15:00
7:35 PM,10.4,-0.4,62,30.20,10.0,Calm,Calm,-,N/A,,Clear,0,2013-02-11 00:35:00
7:55 PM,6.8,-2.2,67,30.21,10.0,Calm,Calm,-,N/A,,Clear,0,2013-02-11 00:55:00
8:15 PM,6.8,-0.4,72,30.21,10.0,Calm,Calm,-,N/A,,Clear,0,2013-02-11 01:15:00
8:35 PM,3.2,-4.0,72,30.22,10.0,Calm,Calm,-,N/A,,Clear,0,2013-02-11 01:35:00
8:55 PM,3.2,-2.2,78,30.19,10.0,Calm,Calm,-,N/A,,Clear,0,2013-02-11 01:55:00
9:15 PM,5.0,1.4,85,30.19,10.0,Calm,Calm,-,N/A,,Clear,0,2013-02-11 02:15:00
9:35 PM,-0.4,-9.4,66,30.19,10.0,Calm,Calm,-,N/A,,Clear,0,2013-02-11 02:35:00
9:55 PM,-0.4,-7.6,72,30.20,10.0,Calm,Calm,-,N/A,,Clear,0,2013-02-11 02:55:00
10:15 PM,-0.4,-5.8,78,30.17,10.0,Calm,Calm,-,N/A,,Clear,0,2013-02-11 03:15:00
10:35 PM,-0.4,-2.2,92,30.18,10.0,Calm,Calm,-,N/A,,Clear,0,2013-02-11 03:35:00
10:55 PM,-0.4,-4.0,85,30.17,10.0,Calm,Calm,-,N/A,,Clear,0,2013-02-11 03:55:00
11:15 PM,-2.2,-9.4,71,30.17,10.0,Calm,Calm,-,N/A,,Clear,0,2013-02-11 04:15:00
11:35 PM,-2.2,-5.8,85,30.18,10.0,Calm,Calm,-,N/A,,Clear,0,2013-02-11 04:35:00
11:55 PM,-2.2,-11.2,66,30.18,10.0,Calm,Calm,-,N/A,,Clear,0,2013-02-11 04:55:00